Location: Walsall
(52.5862°N, 1.9829°W)
Time: 06:18:42
(UTC+01:00)

X-37B - Visible Passes

Search period start: 22 June 2021 00:00
Search period end: 02 July 2021 00:00
Orbit: 386 x 389 km, 45.0° (Epoch: 10 June)

Date Brightness Start Highest point End Pass type
(mag) Time Alt. Az. Time Alt. Az. Time Alt. Az.
22 Jun 2.4 02:43:03 15° S 02:43:03 15° S 02:44:17 10° SSE visible
23 Jun 2.3 23:07:53 10° SSW 23:09:48 15° SSE 23:10:08 15° SSE visible
24 Jun 2.0 23:45:10 10° SW 23:47:29 20° S 23:47:29 20° S visible
25 Jun 2.1 22:47:11 10° SW 22:49:28 18° S 22:51:44 10° ESE visible
26 Jun 2.5 00:23:04 10° SW 00:24:10 16° SW 00:24:10 16° SW visible
26 Jun 2.0 23:24:49 10° SW 23:27:18 21° S 23:28:17 18° SSE visible
27 Jun 2.1 22:26:41 10° SW 22:29:08 20° S 22:31:35 10° SE visible
28 Jun 2.4 00:02:57 10° WSW 00:04:33 17° SSW 00:04:33 17° SSW visible
28 Jun 2.1 23:04:35 10° WSW 23:07:00 20° S 23:08:29 15° SSE visible
29 Jun 2.6 23:43:02 10° SW 23:44:39 14° SSW 23:44:39 14° SSW visible
30 Jun 2.4 22:44:28 10° WSW 22:46:40 17° SSW 22:48:33 11° SSE visible
01 Jul 3.0 23:23:52 10° SW 23:24:24 10° SSW 23:24:43 10° SSW visible
